| time (UTC) | temp C | wind direction | speed KPH | gust KPH | rain 1hr cm | rain 24hr cm | rain mn cm | humidity % | barometer mb |
| 20260508050302 | 7 | 126 | 9.7 | 11.3 | 0.00 | 0.00 | 0.00 | 96 | 1018.2 |
| 20260508045802 | 7 | 129 | 9.7 | 9.7 | 0.00 | 0.00 | 0.00 | 96 | 1018.2 |
| 20260508045306 | 6 | 121 | 8.0 | 9.7 | 0.00 | 0.00 | 0.00 | 95 | 1018.1 |
| 20260508044802 | 6 | 113 | 9.7 | 11.3 | 0.00 | 0.00 | 0.00 | 96 | 1018.2 |
| 20260508044302 | 6 | 115 | 9.7 | 11.3 | 0.00 | 0.00 | 0.00 | 95 | 1018.2 |
| 20260508043802 | 6 | 119 | 9.7 | 12.9 | 0.00 | 0.00 | 0.00 | 96 | 1018.1 |
| 20260508043302 | 6 | 124 | 9.7 | 12.9 | 0.00 | 0.00 | 0.00 | 96 | 1018.2 |
| 20260508042803 | 6 | 122 | 11.3 | 12.9 | 0.00 | 0.00 | 0.00 | 96 | 1018.2 |
| 20260508042306 | 6 | 123 | 11.3 | 12.9 | 0.00 | 0.00 | 0.00 | 96 | 1018.3 |
| 20260508041803 | 6 | 122 | 9.7 | 12.9 | 0.00 | 0.00 | 0.00 | 96 | 1018.4 |
| 20260508041303 | 6 | 118 | 9.7 | 11.3 | 0.00 | 0.00 | 0.00 | 95 | 1018.3 |
| 20260508040802 | 6 | 116 | 11.3 | 12.9 | 0.00 | 0.00 | 0.00 | 95 | 1018.2 |
| 20260508040304 | 6 | 114 | 11.3 | 12.9 | 0.00 | 0.00 | 0.00 | 95 | 1018.2 |
| 20260508035802 | 6 | 111 | 9.7 | 11.3 | 0.00 | 0.00 | 0.00 | 95 | 1018.2 |
| 20260508035306 | 6 | 116 | 9.7 | 11.3 | 0.00 | 0.00 | 0.00 | 95 | 1018.2 |
| 20260508034803 | 6 | 113 | 11.3 | 11.3 | 0.00 | 0.00 | 0.00 | 95 | 1018.2 |
| 20260508034302 | 6 | 109 | 11.3 | 12.9 | 0.00 | 0.00 | 0.00 | 95 | 1018.2 |
| 20260508032803 | 6 | 117 | 11.3 | 14.5 | 0.00 | 0.00 | 0.00 | 95 | 1018.2 |
| 20260508032306 | 6 | 119 | 12.9 | 12.9 | 0.00 | 0.00 | 0.00 | 95 | 1018.2 |
| 20260508031802 | 6 | 122 | 12.9 | 14.5 | 0.00 | 0.00 | 0.00 | 95 | 1018.2 |
| 20260508031303 | 6 | 121 | 12.9 | 14.5 | 0.00 | 0.00 | 0.00 | 95 | 1018.2 |
| 20260508030802 | 6 | 120 | 12.9 | 12.9 | 0.00 | 0.00 | 0.00 | 95 | 1018.2 |
| 20260508030302 | 6 | 116 | 11.3 | 14.5 | 0.00 | 0.00 | 0.00 | 94 | 1018.1 |
| 20260508025803 | 6 | 116 | 11.3 | 12.9 | 0.00 | 0.00 | 0.00 | 94 | 1018.2 |
| 20260508025306 | 6 | 117 | 11.3 | 12.9 | 0.00 | 0.00 | 0.00 | 94 | 1018.2 |
| 20260508024803 | 6 | 118 | 11.3 | 12.9 | 0.00 | 0.00 | 0.00 | 95 | 1018.1 |
| 20260508023803 | 6 | 122 | 9.7 | 11.3 | 0.00 | 0.00 | 0.00 | 95 | 1018.3 |
| 20260508022802 | 6 | 121 | 9.7 | 11.3 | 0.00 | 0.00 | 0.00 | 95 | 1018.2 |
| 20260508022306 | 6 | 129 | 11.3 | 12.9 | 0.00 | 0.00 | 0.00 | 95 | 1018.3 |
| 20260508021802 | 6 | 120 | 11.3 | 12.9 | 0.00 | 0.00 | 0.00 | 95 | 1018.3 |
| 20260508021303 | 6 | 130 | 9.7 | 11.3 | 0.00 | 0.00 | 0.00 | 95 | 1018.3 |
| 20260508020802 | 6 | 122 | 9.7 | 9.7 | 0.00 | 0.00 | 0.00 | 95 | 1018.3 |
| 20260508020303 | 6 | 127 | 8.0 | 9.7 | 0.00 | 0.00 | 0.00 | 94 | 1018.3 |
| 20260508015803 | 6 | 118 | 8.0 | 9.7 | 0.00 | 0.00 | 0.00 | 94 | 1018.2 |
| 20260508015305 | 6 | 121 | 8.0 | 9.7 | 0.00 | 0.00 | 0.00 | 94 | 1018.2 |
| 20260508014802 | 6 | 115 | 9.7 | 11.3 | 0.00 | 0.00 | 0.00 | 94 | 1018.2 |
| 20260508014302 | 6 | 110 | 9.7 | 11.3 | 0.00 | 0.00 | 0.00 | 93 | 1018.1 |
| 20260508013802 | 6 | 125 | 9.7 | 9.7 | 0.00 | 0.00 | 0.00 | 93 | 1018.2 |
| 20260508013303 | 6 | 119 | 9.7 | 11.3 | 0.00 | 0.00 | 0.00 | 93 | 1018.2 |
| 20260508011802 | 7 | 117 | 9.7 | 11.3 | 0.00 | 0.00 | 0.00 | 92 | 1018.3 |
| 20260508011303 | 7 | 112 | 11.3 | 12.9 | 0.00 | 0.00 | 0.00 | 92 | 1018.3 |
| 20260508010804 | 7 | 114 | 11.3 | 11.3 | 0.00 | 0.00 | 0.00 | 93 | 1018.4 |
| 20260508010302 | 7 | 112 | 9.7 | 11.3 | 0.00 | 0.00 | 0.00 | 93 | 1018.3 |
| 20260508004804 | 7 | 111 | 9.7 | 11.3 | 0.00 | 0.00 | 0.00 | 93 | 1018.4 |
| 20260508004302 | 7 | 109 | 9.7 | 11.3 | 0.00 | 0.00 | 0.00 | 93 | 1018.4 |
| 20260508003803 | 7 | 113 | 9.7 | 9.7 | 0.00 | 0.00 | 0.00 | 92 | 1018.4 |
| 20260508003303 | 7 | 117 | 9.7 | 9.7 | 0.00 | 0.00 | 0.00 | 92 | 1018.5 |
| 20260508002306 | 7 | 123 | 9.7 | 9.7 | 0.00 | 0.00 | 0.00 | 92 | 1018.6 |
| 20260508001802 | 7 | 122 | 9.7 | 9.7 | 0.00 | 0.00 | 0.00 | 92 | 1018.6 |
| 20260508001303 | 7 | 121 | 9.7 | 9.7 | 0.00 | 0.00 | 0.00 | 92 | 1018.5 |
| 20260508000802 | 7 | 123 | 9.7 | 9.7 | 0.00 | 0.00 | 0.00 | 92 | 1018.6 |
| 20260508000305 | 7 | 120 | 9.7 | 9.7 | 0.00 | 0.00 | 0.00 | 92 | 1018.6 |
| 20260507234802 | 7 | 130 | 9.7 | 11.3 | 0.00 | 0.00 | 0.00 | 92 | 1018.6 |
| 20260507233803 | 7 | 128 | 9.7 | 11.3 | 0.00 | 0.00 | 0.00 | 91 | 1018.5 |
| 20260507233302 | 7 | 126 | 9.7 | 11.3 | 0.00 | 0.00 | 0.00 | 91 | 1018.6 |
| 20260507232804 | 7 | 127 | 8.0 | 9.7 | 0.00 | 0.00 | 0.00 | 91 | 1018.5 |
| 20260507232306 | 7 | 119 | 8.0 | 9.7 | 0.00 | 0.00 | 0.00 | 90 | 1018.5 |
| 20260507231802 | 7 | 115 | 8.0 | 9.7 | 0.00 | 0.00 | 0.00 | 90 | 1018.6 |
| 20260507231303 | 7 | 113 | 9.7 | 9.7 | 0.00 | 0.00 | 0.00 | 90 | 1018.6 |
| 20260507230803 | 7 | 118 | 9.7 | 12.9 | 0.00 | 0.00 | 0.00 | 90 | 1018.7 |
| 20260507230302 | 7 | 116 | 9.7 | 12.9 | 0.00 | 0.00 | 0.00 | 89 | 1018.6 |
| 20260507225803 | 8 | 125 | 9.7 | 12.9 | 0.00 | 0.00 | 0.00 | 89 | 1018.7 |
| 20260507225306 | 8 | 134 | 8.0 | 9.7 | 0.00 | 0.00 | 0.00 | 89 | 1018.8 |
| 20260507224803 | 8 | 123 | 4.8 | 9.7 | 0.00 | 0.00 | 0.00 | 89 | 1018.8 |
| 20260507224303 | 8 | 115 | 8.0 | 9.7 | 0.00 | 0.00 | 0.00 | 88 | 1018.7 |
| 20260507223803 | 8 | 118 | 9.7 | 12.9 | 0.00 | 0.00 | 0.00 | 88 | 1018.8 |
| 20260507222802 | 8 | 126 | 9.7 | 12.9 | 0.00 | 0.00 | 0.00 | 87 | 1018.7 |
| 20260507221803 | 8 | 136 | 11.3 | 16.1 | 0.00 | 0.00 | 0.00 | 87 | 1018.7 |
| 20260507221304 | 8 | 122 | 9.7 | 14.5 | 0.00 | 0.00 | 0.00 | 86 | 1018.6 |
| 20260507220802 | 8 | 114 | 9.7 | 12.9 | 0.00 | 0.00 | 0.00 | 86 | 1018.6 |
| 20260507215803 | 9 | 118 | 9.7 | 14.5 | 0.00 | 0.00 | 0.00 | 86 | 1018.6 |
| 20260507215306 | 9 | 115 | 11.3 | 12.9 | 0.00 | 0.00 | 0.00 | 85 | 1018.6 |
| 20260507214303 | 9 | 127 | 8.0 | 11.3 | 0.00 | 0.00 | 0.00 | 85 | 1018.7 |
| 20260507213803 | 9 | 116 | 9.7 | 16.1 | 0.00 | 0.00 | 0.00 | 84 | 1018.7 |
| 20260507213303 | 9 | 127 | 11.3 | 16.1 | 0.00 | 0.00 | 0.00 | 84 | 1018.7 |
| 20260507212803 | 9 | 129 | 11.3 | 19.3 | 0.00 | 0.00 | 0.00 | 84 | 1018.7 |
| 20260507212306 | 9 | 118 | 11.3 | 14.5 | 0.00 | 0.00 | 0.00 | 84 | 1018.6 |
| 20260507211802 | 9 | 116 | 11.3 | 19.3 | 0.00 | 0.00 | 0.00 | 83 | 1018.6 |
| 20260507211302 | 10 | 114 | 12.9 | 16.1 | 0.00 | 0.00 | 0.00 | 83 | 1018.6 |
| 20260507210803 | 10 | 118 | 11.3 | 19.3 | 0.00 | 0.00 | 0.00 | 83 | 1018.5 |
| 20260507210303 | 10 | 122 | 11.3 | 19.3 | 0.00 | 0.00 | 0.00 | 82 | 1018.5 |
| 20260507205803 | 10 | 123 | 9.7 | 14.5 | 0.00 | 0.00 | 0.00 | 82 | 1018.4 |
| 20260507205306 | 10 | 118 | 12.9 | 19.3 | 0.00 | 0.00 | 0.00 | 83 | 1018.4 |
| 20260507204803 | 10 | 119 | 8.0 | 11.3 | 0.00 | 0.00 | 0.00 | 82 | 1018.4 |
| 20260507204303 | 10 | 109 | 9.7 | 16.1 | 0.00 | 0.00 | 0.00 | 82 | 1018.3 |
| 20260507203802 | 10 | 102 | 9.7 | 16.1 | 0.00 | 0.00 | 0.00 | 82 | 1018.2 |
| 20260507202803 | 10 | 100 | 14.5 | 19.3 | 0.00 | 0.00 | 0.00 | 81 | 1018.0 |
| 20260507202306 | 10 | 101 | 17.7 | 20.9 | 0.00 | 0.00 | 0.00 | 81 | 1017.9 |
| 20260507201803 | 10 | 103 | 16.1 | 20.9 | 0.00 | 0.00 | 0.00 | 81 | 1018.0 |
| 20260507201302 | 10 | 99 | 11.3 | 14.5 | 0.00 | 0.00 | 0.00 | 81 | 1018.1 |
| 20260507200803 | 10 | 101 | 11.3 | 14.5 | 0.00 | 0.00 | 0.00 | 80 | 1018.0 |
| 20260507200304 | 10 | 107 | 12.9 | 16.1 | 0.00 | 0.00 | 0.00 | 80 | 1018.1 |
| 20260507195803 | 10 | 108 | 11.3 | 16.1 | 0.00 | 0.00 | 0.00 | 80 | 1018.1 |
| 20260507195305 | 10 | 104 | 11.3 | 16.1 | 0.00 | 0.00 | 0.00 | 80 | 1018.1 |
| 20260507194303 | 10 | 109 | 9.7 | 12.9 | 0.00 | 0.00 | 0.00 | 80 | 1018.1 |
| 20260507193804 | 11 | 104 | 9.7 | 19.3 | 0.00 | 0.00 | 0.00 | 79 | 1018.0 |
| 20260507193303 | 11 | 97 | 14.5 | 19.3 | 0.00 | 0.00 | 0.00 | 79 | 1017.9 |
| 20260507192802 | 11 | 113 | 16.1 | 20.9 | 0.00 | 0.00 | 0.00 | 79 | 1017.8 |
| 20260507192306 | 11 | 109 | 12.9 | 19.3 | 0.00 | 0.00 | 0.00 | 79 | 1017.7 |
| 20260507191804 | 11 | 105 | 14.5 | 22.5 | 0.00 | 0.00 | 0.00 | 79 | 1017.7 |
| 20260507190804 | 11 | 104 | 14.5 | 22.5 | 0.00 | 0.00 | 0.00 | 78 | 1017.7 |
| 20260507190303 | 11 | 98 | 16.1 | 20.9 | 0.00 | 0.00 | 0.00 | 78 | 1017.7 |
| 20260507185803 | 11 | 102 | 14.5 | 22.5 | 0.00 | 0.00 | 0.00 | 78 | 1017.8 |
| 20260507185305 | 11 | 109 | 16.1 | 24.1 | 0.00 | 0.00 | 0.00 | 77 | 1017.8 |
| 20260507184302 | 11 | 106 | 16.1 | 25.7 | 0.00 | 0.00 | 0.00 | 77 | 1017.8 |
| 20260507183803 | 11 | 107 | 19.3 | 24.1 | 0.00 | 0.00 | 0.00 | 77 | 1017.8 |
| 20260507183303 | 11 | 110 | 17.7 | 22.5 | 0.00 | 0.00 | 0.00 | 77 | 1017.7 |
| 20260507182803 | 11 | 112 | 20.9 | 25.7 | 0.00 | 0.00 | 0.00 | 76 | 1017.7 |
| 20260507182306 | 11 | 101 | 17.7 | 24.1 | 0.00 | 0.00 | 0.00 | 76 | 1017.6 |
| 20260507181803 | 11 | 108 | 17.7 | 24.1 | 0.00 | 0.00 | 0.00 | 75 | 1017.5 |
| 20260507181303 | 11 | 98 | 16.1 | 24.1 | 0.00 | 0.00 | 0.00 | 75 | 1017.4 |
| 20260507180303 | 12 | 105 | 19.3 | 25.7 | 0.00 | 0.00 | 0.00 | 74 | 1017.4 |
| 20260507175306 | 12 | 109 | 19.3 | 24.1 | 0.00 | 0.00 | 0.00 | 73 | 1017.5 |
| 20260507174802 | 12 | 113 | 16.1 | 22.5 | 0.00 | 0.00 | 0.00 | 74 | 1017.5 |
| 20260507174302 | 12 | 108 | 14.5 | 22.5 | 0.00 | 0.00 | 0.00 | 73 | 1017.3 |
| 20260507173803 | 12 | 118 | 14.5 | 22.5 | 0.00 | 0.00 | 0.00 | 73 | 1017.3 |
| 20260507173302 | 12 | 101 | 14.5 | 20.9 | 0.00 | 0.00 | 0.00 | 72 | 1017.2 |
| 20260507172805 | 12 | 103 | 14.5 | 20.9 | 0.00 | 0.00 | 0.00 | 72 | 1017.3 |
| 20260507172307 | 12 | 103 | 16.1 | 20.9 | 0.00 | 0.00 | 0.00 | 71 | 1017.4 |
| 20260507171802 | 12 | 101 | 17.7 | 22.5 | 0.00 | 0.00 | 0.00 | 71 | 1017.3 |
| 20260507171302 | 12 | 110 | 16.1 | 20.9 | 0.00 | 0.00 | 0.00 | 70 | 1017.3 |
| 20260507170802 | 12 | 99 | 14.5 | 19.3 | 0.00 | 0.00 | 0.00 | 70 | 1017.4 |
| 20260507170303 | 12 | 105 | 12.9 | 20.9 | 0.00 | 0.00 | 0.00 | 71 | 1017.5 |
| 20260507165802 | 12 | 90 | 9.7 | 19.3 | 0.00 | 0.00 | 0.00 | 71 | 1017.5 |
| 20260507165306 | 12 | 91 | 14.5 | 19.3 | 0.00 | 0.00 | 0.00 | 71 | 1017.4 |
| 20260507164803 | 12 | 78 | 11.3 | 20.9 | 0.00 | 0.00 | 0.00 | 71 | 1017.4 |
| 20260507164303 | 12 | 90 | 16.1 | 22.5 | 0.00 | 0.00 | 0.00 | 71 | 1017.3 |
| 20260507163803 | 12 | 87 | 9.7 | 14.5 | 0.00 | 0.00 | 0.00 | 72 | 1017.3 |
| 20260507163302 | 12 | 97 | 11.3 | 19.3 | 0.00 | 0.00 | 0.00 | 71 | 1017.3 |
| 20260507162804 | 12 | 102 | 12.9 | 16.1 | 0.00 | 0.00 | 0.00 | 71 | 1017.3 |
| 20260507162306 | 12 | 109 | 12.9 | 16.1 | 0.00 | 0.00 | 0.00 | 72 | 1017.4 |
| 20260507161803 | 12 | 88 | 8.0 | 12.9 | 0.00 | 0.00 | 0.00 | 72 | 1017.4 |
| 20260507161303 | 12 | 85 | 8.0 | 12.9 | 0.00 | 0.00 | 0.00 | 72 | 1017.5 |
| 20260507160803 | 12 | 25 | 6.4 | 9.7 | 0.00 | 0.00 | 0.00 | 73 | 1017.6 |
| 20260507160306 | 12 | 21 | 3.2 | 8.0 | 0.00 | 0.00 | 0.00 | 74 | 1017.5 |
| 20260507155803 | 12 | 52 | 3.2 | 9.7 | 0.00 | 0.00 | 0.00 | 73 | 1017.5 |
| 20260507155306 | 12 | 24 | 3.2 | 8.0 | 0.00 | 0.00 | 0.00 | 74 | 1017.6 |
| 20260507154803 | 12 | 23 | 4.8 | 14.5 | 0.00 | 0.00 | 0.00 | 74 | 1017.7 |
| 20260507154303 | 12 | 39 | 6.4 | 12.9 | 0.00 | 0.00 | 0.00 | 73 | 1017.4 |
| 20260507153803 | 12 | 39 | 4.8 | 11.3 | 0.00 | 0.00 | 0.00 | 73 | 1017.4 |
| 20260507153303 | 12 | 68 | 8.0 | 12.9 | 0.00 | 0.00 | 0.00 | 73 | 1017.4 |
| 20260507152803 | 13 | 67 | 4.8 | 12.9 | 0.00 | 0.00 | 0.00 | 73 | 1017.4 |
| 20260507152306 | 12 | 77 | 6.4 | 12.9 | 0.00 | 0.00 | 0.00 | 73 | 1017.6 |
| 20260507151804 | 13 | 32 | 8.0 | 14.5 | 0.00 | 0.00 | 0.00 | 72 | 1017.7 |
| 20260507151303 | 13 | 78 | 9.7 | 16.1 | 0.00 | 0.00 | 0.00 | 74 | 1017.7 |
| 20260507145803 | 13 | 23 | 9.7 | 14.5 | 0.00 | 0.00 | 0.00 | 74 | 1017.5 |
| 20260507144803 | 12 | 84 | 8.0 | 19.3 | 0.00 | 0.00 | 0.00 | 75 | 1017.5 |
| 20260507144303 | 12 | 28 | 11.3 | 16.1 | 0.00 | 0.00 | 0.00 | 75 | 1017.6 |
| 20260507143802 | 12 | 55 | 9.7 | 19.3 | 0.00 | 0.00 | 0.00 | 76 | 1017.6 |
| 20260507143303 | 12 | 61 | 11.3 | 19.3 | 0.00 | 0.00 | 0.00 | 76 | 1017.5 |
| 20260507142803 | 12 | 49 | 12.9 | 20.9 | 0.00 | 0.00 | 0.00 | 78 | 1017.8 |
| 20260507142306 | 12 | 41 | 11.3 | 19.3 | 0.00 | 0.00 | 0.00 | 77 | 1017.9 |
| 20260507141804 | 12 | 44 | 11.3 | 19.3 | 0.00 | 0.00 | 0.00 | 76 | 1018.0 |
| 20260507140304 | 12 | 37 | 14.5 | 20.9 | 0.00 | 0.00 | 0.00 | 77 | 1017.9 |
| 20260507135803 | 12 | 50 | 9.7 | 19.3 | 0.00 | 0.00 | 0.00 | 78 | 1018.0 |
| 20260507135306 | 12 | 48 | 11.3 | 19.3 | 0.00 | 0.00 | 0.00 | 79 | 1017.9 |
| 20260507134803 | 11 | 29 | 11.3 | 19.3 | 0.00 | 0.00 | 0.00 | 78 | 1018.1 |
| 20260507134303 | 11 | 37 | 9.7 | 16.1 | 0.00 | 0.00 | 0.00 | 78 | 1018.0 |
| 20260507133803 | 11 | 36 | 8.0 | 16.1 | 0.00 | 0.00 | 0.00 | 79 | 1018.3 |
| 20260507133304 | 11 | 24 | 8.0 | 14.5 | 0.00 | 0.00 | 0.00 | 79 | 1018.2 |
| 20260507132803 | 11 | 30 | 9.7 | 19.3 | 0.00 | 0.00 | 0.00 | 79 | 1018.2 |
| 20260507132307 | 11 | 37 | 9.7 | 19.3 | 0.00 | 0.00 | 0.00 | 78 | 1018.2 |
| 20260507131803 | 11 | 29 | 8.0 | 19.3 | 0.00 | 0.00 | 0.00 | 79 | 1018.3 |
| 20260507131305 | 12 | 33 | 9.7 | 16.1 | 0.00 | 0.00 | 0.00 | 78 | 1018.3 |
| 20260507130803 | 12 | 49 | 9.7 | 19.3 | 0.00 | 0.00 | 0.00 | 78 | 1018.2 |
| 20260507130303 | 12 | 27 | 6.4 | 19.3 | 0.00 | 0.00 | 0.00 | 78 | 1018.3 |
| 20260507125803 | 12 | 58 | 8.0 | 14.5 | 0.00 | 0.00 | 0.00 | 77 | 1018.3 |
| 20260507124303 | 12 | 46 | 9.7 | 14.5 | 0.00 | 0.00 | 0.00 | 76 | 1018.1 |
| 20260507123303 | 12 | 34 | 8.0 | 16.1 | 0.00 | 0.00 | 0.00 | 74 | 1018.2 |
| 20260507122804 | 12 | 21 | 9.7 | 19.3 | 0.00 | 0.00 | 0.00 | 74 | 1018.3 |
| 20260507122306 | 12 | 44 | 11.3 | 22.5 | 0.00 | 0.00 | 0.00 | 76 | 1018.2 |
| 20260507121803 | 12 | 40 | 9.7 | 19.3 | 0.00 | 0.00 | 0.00 | 76 | 1018.2 |
| 20260507121303 | 11 | 27 | 11.3 | 19.3 | 0.00 | 0.00 | 0.00 | 75 | 1018.2 |
| 20260507120803 | 11 | 42 | 8.0 | 19.3 | 0.00 | 0.00 | 0.00 | 76 | 1018.4 |
| 20260507120302 | 11 | 47 | 11.3 | 19.3 | 0.00 | 0.00 | 0.00 | 75 | 1018.2 |
| 20260507115804 | 11 | 45 | 8.0 | 19.3 | 0.00 | 0.00 | 0.00 | 78 | 1018.3 |
| 20260507115306 | 10 | 54 | 8.0 | 19.3 | 0.00 | 0.00 | 0.00 | 80 | 1018.2 |
| 20260507114803 | 10 | 39 | 4.8 | 14.5 | 0.00 | 0.00 | 0.00 | 79 | 1018.4 |
| 20260507114303 | 10 | 18 | 8.0 | 16.1 | 0.00 | 0.00 | 0.00 | 79 | 1018.4 |
| 20260507113803 | 10 | 6 | 9.7 | 19.3 | 0.00 | 0.00 | 0.00 | 78 | 1018.4 |
| 20260507113303 | 10 | 358 | 8.0 | 14.5 | 0.00 | 0.00 | 0.00 | 78 | 1018.3 |
| 20260507112803 | 10 | 338 | 3.2 | 11.3 | 0.00 | 0.00 | 0.00 | 79 | 1018.3 |
| 20260507112307 | 10 | 355 | 3.2 | 11.3 | 0.00 | 0.00 | 0.00 | 79 | 1018.2 |
| 20260507111803 | 10 | 37 | 4.8 | 11.3 | 0.00 | 0.00 | 0.00 | 79 | 1018.3 |
| 20260507110803 | 10 | 38 | 8.0 | 14.5 | 0.00 | 0.00 | 0.00 | 78 | 1018.5 |
| 20260507110303 | 10 | 41 | 6.4 | 14.5 | 0.00 | 0.00 | 0.00 | 77 | 1018.4 |
| 20260507105803 | 11 | 37 | 9.7 | 19.3 | 0.00 | 0.00 | 0.00 | 77 | 1018.3 |
| 20260507105306 | 11 | 40 | 11.3 | 19.3 | 0.00 | 0.00 | 0.00 | 76 | 1018.4 |
| 20260507104804 | 11 | 38 | 4.8 | 19.3 | 0.00 | 0.00 | 0.00 | 77 | 1018.5 |
| 20260507104303 | 11 | 69 | 8.0 | 16.1 | 0.00 | 0.00 | 0.00 | 76 | 1018.4 |
| 20260507103306 | 11 | 349 | 9.7 | 16.1 | 0.00 | 0.00 | 0.00 | 77 | 1018.7 |
| 20260507102803 | 11 | 343 | 8.0 | 19.3 | 0.00 | 0.00 | 0.00 | 76 | 1018.7 |
| 20260507101303 | 11 | 37 | 6.4 | 11.3 | 0.00 | 0.00 | 0.00 | 72 | 1018.5 |
| 20260507100803 | 11 | 347 | 3.2 | 8.0 | 0.00 | 0.00 | 0.00 | 73 | 1018.6 |
| 20260507100303 | 11 | 107 | 6.4 | 9.7 | 0.00 | 0.00 | 0.00 | 71 | 1018.6 |
| 20260507095803 | 11 | 67 | 1.6 | 8.0 | 0.00 | 0.00 | 0.00 | 71 | 1018.5 |
| 20260507095305 | 11 | 91 | 6.4 | 9.7 | 0.00 | 0.00 | 0.00 | 70 | 1018.6 |
| 20260507094803 | 11 | 61 | 4.8 | 8.0 | 0.00 | 0.00 | 0.00 | 71 | 1018.5 |
| 20260507094303 | 11 | 97 | 3.2 | 8.0 | 0.00 | 0.00 | 0.00 | 73 | 1018.5 |
| 20260507093804 | 11 | 89 | 4.8 | 12.9 | 0.00 | 0.00 | 0.00 | 72 | 1018.5 |
| 20260507093303 | 11 | 158 | 8.0 | 12.9 | 0.00 | 0.00 | 0.00 | 71 | 1018.5 |
| 20260507092803 | 11 | 106 | 6.4 | 9.7 | 0.00 | 0.00 | 0.00 | 71 | 1018.5 |
| 20260507092306 | 11 | 172 | 4.8 | 9.7 | 0.00 | 0.00 | 0.00 | 73 | 1018.5 |
| 20260507091803 | 11 | 117 | 8.0 | 14.5 | 0.00 | 0.00 | 0.00 | 72 | 1018.5 |
| 20260507090804 | 11 | 134 | 4.8 | 11.3 | 0.00 | 0.00 | 0.00 | 74 | 1018.6 |
| 20260507090303 | 11 | 73 | 9.7 | 16.1 | 0.00 | 0.00 | 0.00 | 74 | 1018.5 |
| 20260507084803 | 10 | 84 | 11.3 | 16.1 | 0.00 | 0.00 | 0.00 | 73 | 1018.5 |
| 20260507083805 | 10 | 89 | 9.7 | 16.1 | 0.00 | 0.00 | 0.00 | 77 | 1018.4 |
| 20260507083303 | 10 | 135 | 4.8 | 11.3 | 0.00 | 0.00 | 0.00 | 78 | 1018.6 |
| 20260507081803 | 9 | 105 | 9.7 | 12.9 | 0.00 | 0.00 | 0.00 | 78 | 1018.4 |
| 20260507081303 | 9 | 96 | 4.8 | 9.7 | 0.00 | 0.00 | 0.00 | 79 | 1018.5 |
| 20260507080803 | 9 | 102 | 4.8 | 8.0 | 0.00 | 0.00 | 0.00 | 79 | 1018.5 |
| 20260507080303 | 9 | 86 | 4.8 | 8.0 | 0.00 | 0.00 | 0.00 | 78 | 1018.5 |
| 20260507075803 | 9 | 98 | 4.8 | 9.7 | 0.00 | 0.00 | 0.00 | 79 | 1018.5 |
| 20260507075306 | 9 | 97 | 4.8 | 4.8 | 0.00 | 0.00 | 0.00 | 79 | 1018.3 |
| 20260507074804 | 9 | 97 | 6.4 | 9.7 | 0.00 | 0.00 | 0.00 | 78 | 1018.3 |
| 20260507074303 | 9 | 96 | 9.7 | 12.9 | 0.00 | 0.00 | 0.00 | 78 | 1018.3 |
| 20260507073803 | 9 | 106 | 8.0 | 12.9 | 0.00 | 0.00 | 0.00 | 78 | 1018.2 |
| 20260507073303 | 9 | 107 | 9.7 | 16.1 | 0.00 | 0.00 | 0.00 | 78 | 1018.2 |
| 20260507072803 | 9 | 114 | 9.7 | 14.5 | 0.00 | 0.00 | 0.00 | 78 | 1018.2 |
| 20260507072306 | 9 | 122 | 9.7 | 12.9 | 0.00 | 0.00 | 0.00 | 78 | 1018.2 |
| 20260507071803 | 9 | 119 | 11.3 | 14.5 | 0.00 | 0.00 | 0.00 | 78 | 1018.0 |
| 20260507071303 | 9 | 138 | 11.3 | 16.1 | 0.00 | 0.00 | 0.00 | 78 | 1018.0 |
| 20260507070804 | 8 | 97 | 14.5 | 19.3 | 0.00 | 0.00 | 0.00 | 80 | 1018.1 |
| 20260507070303 | 8 | 117 | 11.3 | 19.3 | 0.00 | 0.00 | 0.00 | 81 | 1018.2 |
| 20260507065803 | 8 | 112 | 11.3 | 16.1 | 0.00 | 0.00 | 0.00 | 82 | 1018.1 |
| 20260507064803 | 8 | 114 | 11.3 | 12.9 | 0.00 | 0.00 | 0.00 | 83 | 1018.0 |
| 20260507064303 | 8 | 111 | 9.7 | 12.9 | 0.00 | 0.00 | 0.00 | 83 | 1018.0 |
| 20260507063803 | 8 | 112 | 9.7 | 11.3 | 0.00 | 0.00 | 0.00 | 84 | 1017.9 |
| 20260507063304 | 8 | 115 | 9.7 | 11.3 | 0.00 | 0.00 | 0.00 | 84 | 1018.0 |
| 20260507062803 | 8 | 136 | 8.0 | 9.7 | 0.00 | 0.00 | 0.00 | 84 | 1017.9 |
| 20260507062306 | 8 | 114 | 6.4 | 8.0 | 0.00 | 0.00 | 0.00 | 85 | 1018.0 |
| 20260507061804 | 8 | 142 | 4.8 | 4.8 | 0.00 | 0.00 | 0.00 | 85 | 1018.0 |
| 20260507061303 | 8 | 157 | 4.8 | 4.8 | 0.00 | 0.00 | 0.00 | 86 | 1018.0 |
| 20260507060803 | 8 | 152 | 4.8 | 4.8 | 0.00 | 0.00 | 0.00 | 86 | 1018.0 |
| 20260507055803 | 7 | 138 | 3.2 | 4.8 | 0.00 | 0.00 | 0.00 | 86 | 1017.9 |
| 20260507055306 | 7 | 142 | 3.2 | 4.8 | 0.00 | 0.00 | 0.00 | 86 | 1017.8 |
| 20260507054805 | 7 | 143 | 3.2 | 4.8 | 0.00 | 0.00 | 0.00 | 87 | 1017.7 |
| 20260507054303 | 7 | 142 | 3.2 | 3.2 | 0.00 | 0.00 | 0.00 | 86 | 1017.7 |
| 20260507052805 | 7 | 133 | 3.2 | 3.2 | 0.00 | 0.08 | 0.00 | 86 | 1017.6 |
| 20260507051805 | 7 | 136 | 3.2 | 4.8 | 0.00 | 0.10 | 0.00 | 86 | 1017.6 |
| 20260507051303 | 7 | 140 | 3.2 | 4.8 | 0.00 | 0.10 | 0.00 | 86 | 1017.6 |
| 20260507050803 | 7 | 136 | 3.2 | 4.8 | 0.00 | 0.10 | 0.00 | 87 | 1017.6 |